COSMOS 1275 DEB

Satellite information

Favourite Embed

Satellite Type and Status

DEBRISIN ORBIT

Key statistics

Satellite COSMOS 1275 DEB at a glance.

Uptime

16042

Days in orbit

Revolutions

≈ 14.4

Per day

Orbit

LEO

Low Earth Orbit

Inclination

82.8

Latest

Satellite identification and parameters

Extended collection of information and parameters for COSMOS 1275 DEB.

Object identification

Identified? True

Debris? True

Object name: COSMOS 1275 DEB

International designator: 1981-053KT

Object number (NORAD): 17624

Object ID (CCSDS): 17624

Country: COMMONWEALTH OF INDEPENDENT STATES (CIS)

Current information (Y/N): Y

RCS size: SMALL

Orbital parameters

Period: 99.723 minutes

Inclination: 82.8417 deg

SMA: 7123.468 km

Apoapsis: 755.8 km

Periapsis: 734.867 km

RAAN: 60.0091 deg

Eccentricy: 0.0014693

Argument of periapsis: 17.4493 deg

Mean anomaly: 50.3592 deg

Mean motion: 14.43994423 rev/day

Mean motion (dot): 0.00008487 rev/day2

B* drag term: 0.0024746 1/REarth

Two-line elements (TLE)

Creation date: May 6, 2025, 3:54 a.m.

Reference frame: TEME

Reference center: EARTH

Epoch: May 5, 2025, 9:10 p.m. UTC

TLE line 0: 0 COSMOS 1275 DEB

TLE line 1: 1 17624U 81053KT 25125.88194983 .00008487 00000-0 24746-2 0 9994

TLE line 2: 2 17624 82.8417 60.0091 0014693 17.4493 50.3592 14.43994423 65108

Live tracking on map

Real-time ground track for satellite COSMOS 1275 DEB.

In-orbit conjunctions

A list of the most updated potential collisions computed for object COSMOS 1275 DEB.

Target Orbit TCA Probability of collision Miss distance Type
CZ-6A DEB LEO 2025-02-01 15:23:34 0.0001181979 377.0 (m) DEBRIS
COSMOS 990 LEO 2024-12-04 21:41:21 0.0002075098 156.0 (m) PAYLOAD
CZ-6A DEB SSO 2024-11-11 17:43:13 0.0002436773 870.0 (m) DEBRIS
THORAD AGENA D DEB SSO 2024-11-09 18:35:35 0.0003894069 271.0 (m) DEBRIS
JAWSAT SSO 2024-08-26 12:27:26 0.000153747 522.0 (m) PAYLOAD

Associated space launch

Navigation satellite providing location information for the Tsiklon-B navigation system

COSMOS 1275 DEB was lifted into orbit during the mission ‘Kosmos-3M | Parus 27’, on board a Kosmos-3M space rocket.

The launch took place on June 4, 1981, 3:41 p.m. from 132/2.

For more information about the launch, click the button.

Launch to space Kosmos-3M | Parus 27
Kosmos-3M | Parus 27

Agency: N/A

Status: Launch Successful

Launch date: June 4, 1981, 3:41 p.m. UTC

Rocket: Kosmos-3M

Launch pad: 132/2

Location: Plesetsk Cosmodrome, Russian Federation

...

Latest news about this satellite

There are no fresh news available about this satellite. Check back as we update our databases every day.


Newsletter sign-up

Weekly statistics, charts and insights to help you stay on top of the space industry.